Location: Bonningues
(50.7927°N, 2.0150°E)
Time: 07:05:34
(UTC+00:00)

Terra - Pass Details

Date: 08 August 2020
Orbit: 701 x 703 km, 98.2° (Epoch: 26 September)

Event Time Altitude Azimuth Distance (km) Brightness Sun altitude
Exits shadow 21:59:50 29° 188° (S) 1,270 2.7 -18.6°
Maximum altitude 22:02:08 61° 258° (WSW) 801 2.1 -18.8°
Drops below altitude 10° 22:06:53 10° 339° (NNW) 2,184 5.6 -19.1°
Sets 22:09:11 0° 343° (NNW) 3,108 6.7 -19.3°
